Voltar ao catálogo

FENGYUN 1C DEB

AtivoPO
NORAD 31563·DEBRIS·🇨🇳 China

Lançado May 10, 1999 de Taiyuan Satellite Launch Center

Loading…

Próximas Passagens (próximas 24 horas)

TLE

AtualizadoSource: Space-Track

Época: Sep 12, 2026, 23:07 UTC

1 31563U 99025BZE 26255.96386813  .00001358  00000-0  23199-3 0  9991
2 31563  98.9753  79.6667 0109397 314.0144  45.2080 14.67079194 25473

Acompanhe FENGYUN 1C DEB em tempo real com AllMySat

Download on the App Store